Location: *
(46.3500°N, 10.9000°E)
Time: 22:17:44
(UTC+00:00)

A-11 Canister half - Pass Details

Date: 28 April 2021
Orbit: 1526 x 1682 km, 47.3° (Epoch: 13 May)

Event Time Altitude Azimuth Distance (km) Brightness Sun altitude
Rises 12:27:09 0° 231° (SW) 4,801 12.1 54.5°
Reaches altitude 10° 12:30:15 10° 228° (SW) 3,838 11.9 54.2°
Maximum altitude 12:39:54 64° 150° (SSE) 1,804 10.5 53.3°
Drops below altitude 10° 12:49:50 10° 72° (ENE) 3,943 10.9 52.2°
Sets 12:53:03 0° 70° (ENE) 4,938 11.3 51.8°
